North Bennington, VT

10:42 AM EST on February 06, 2016 (GMT -0500)
Morse State

Weather History for KDDH - July, 2013

Change the Weather History Date:

Friday, July 12, 2013

  Actual Average Record
Temperature  
Mean Temperature 71 °F 68 °F  
Max Temperature 83 °F 80 °F 89 °F (2012)
Min Temperature 58 °F 57 °F 43 °F (2002)
Degree Days  
Heating Degree Days 0 1  
Month to date heating degree days 0 12  
Since 1 June heating degree days 100 109  
Since 1 July heating degree days 0 12  
Cooling Degree Days 6 4  
Month to date cooling degree days 130 47  
Year to date cooling degree days 260 119  
Since 1 June cooling degree days 228 105  
Growing Degree Days 20 (Base 50)    
Moisture  
Dew Point 58 °F    
Average Humidity 70    
Maximum Humidity 93    
Minimum Humidity 46    
Precipitation  
Precipitation 0.00 in 0.14 in 1.02 in (2006)
Month to date precipitation 2.30 1.63  
Year to date precipitation 24.06 20.83  
Sea Level Pressure  
Sea Level Pressure 30.10 in    
Wind  
Wind Speed 2 mph (East)    
Max Wind Speed 10 mph    
Max Gust Speed 15 mph    
Visibility 10 miles    
Events      
T = Trace of Precipitation, MM = Missing Value Source: NWS Daily Summary

Daily Weather History Graph

Daily Weather History Graph

Search for Another Location

Airport or City:

Trip Planner

Search our weather history database for the weather conditions in past years. The results will help you decide how hot, cold, wet, or windy it might be!

Date:

Astronomy

Jul. 12, 2013 Rise Set
Actual Time 5:25 AM EDT 8:31 PM EDT
Civil Twilight 4:51 AM EDT 9:05 PM EDT
Nautical Twilight 4:07 AM EDT 9:49 PM EDT
Astronomical Twilight 3:14 AM EDT 10:41 PM EDT
Moon 9:47 AM EDT (7/12) 10:32 PM EDT (7/12)
Length of Visible Light 16h 14m
Length of Day
15h 05m
Waxing Crescent, 17% of the Moon is Illuminated
Jul 12
Waxing Crescent
Jul 15
First Quarter
Jul 22
Full
Jul 29
Last Quarter
Aug 6
New

Hourly Weather History & Observations

Time (EDT) Temp. Heat Index Dew Point Humidity Pressure Visibility Wind Dir Wind Speed Gust Speed Precip Events Conditions
12:54 AM 64.0 °F - 57.9 °F 80% 30.00 in 10.0 mi Calm Calm - N/A   Partly Cloudy
1:54 AM 60.1 °F - 57.0 °F 90% 30.01 in 10.0 mi Calm Calm - N/A   Clear
2:54 AM 57.9 °F - 55.9 °F 93% 30.02 in 10.0 mi Calm Calm - N/A   Clear
3:54 AM 57.9 °F - 55.9 °F 93% 30.03 in 10.0 mi Calm Calm - N/A   Clear
4:54 AM 59.0 °F - 55.9 °F 90% 30.04 in 10.0 mi Calm Calm - N/A   Partly Cloudy
5:54 AM 61.0 °F - 57.0 °F 87% 30.07 in 10.0 mi Calm Calm - N/A   Mostly Cloudy
6:54 AM 64.0 °F - 59.0 °F 84% 30.07 in 10.0 mi Calm Calm - N/A   Partly Cloudy
7:54 AM 66.9 °F - 59.0 °F 76% 30.09 in 10.0 mi Calm Calm - N/A   Mostly Cloudy
8:54 AM 70.0 °F - 60.1 °F 71% 30.11 in 10.0 mi Calm Calm - N/A   Mostly Cloudy
9:54 AM 73.0 °F - 59.0 °F 61% 30.11 in 10.0 mi Calm Calm - N/A   Clear
10:54 AM 77.0 °F - 57.0 °F 50% 30.12 in 10.0 mi East 4.6 mph - N/A   Clear
11:54 AM 78.1 °F - 57.0 °F 48% 30.11 in 10.0 mi SSE 5.8 mph - N/A   Clear
12:54 PM 78.1 °F - 57.0 °F 48% 30.11 in 10.0 mi NW 4.6 mph - N/A   Mostly Cloudy
1:54 PM 79.0 °F - 57.9 °F 48% 30.11 in 10.0 mi Calm Calm - N/A   Overcast
2:54 PM 81.0 °F 81.6 °F 60.1 °F 49% 30.11 in 10.0 mi Variable 4.6 mph - N/A   Mostly Cloudy
3:54 PM 82.9 °F 83.2 °F 60.1 °F 46% 30.10 in 10.0 mi Calm Calm - N/A   Mostly Cloudy
4:54 PM 82.0 °F 82.1 °F 59.0 °F 45% 30.11 in 10.0 mi Calm Calm - N/A   Mostly Cloudy
5:54 PM 78.1 °F - 60.1 °F 54% 30.11 in 10.0 mi ESE 3.5 mph - N/A   Scattered Clouds
6:54 PM 75.9 °F - 59.0 °F 56% 30.12 in 10.0 mi ESE 5.8 mph - N/A   Clear
7:54 PM 73.9 °F - 61.0 °F 64% 30.13 in 10.0 mi Calm Calm - N/A   Clear
8:54 PM 73.0 °F - 60.1 °F 64% 30.14 in 7.0 mi NE 3.5 mph - N/A   Clear
9:54 PM 71.1 °F - 57.9 °F 63% 30.16 in 10.0 mi Calm Calm - N/A   Clear
10:54 PM 69.1 °F - 59.0 °F 70% 30.18 in 10.0 mi Variable 4.6 mph - N/A   Clear
11:54 PM 70.0 °F - 55.0 °F 59% 30.18 in 10.0 mi Variable 4.6 mph - N/A   Clear